Regional Weather Roundup
Issued by NWS

Home | Current Version | Previous Version | Graphics & Text | Print | Product List | Glossary On
Versions: 1 2 3 4 5 6 7 8 9 10 11 12 13 14 15 16 17 18 19 20 21 22 23 24 25 26 27 28 29
000
ASUS45 KSLC 260110
RWRUT

UTAH REGIONAL WEATHER ROUNDUP
NATIONAL WEATHER SERVICE SALT LAKE CITY UT
700 PM MDT SAT OCT 25 2014

UTZ001>011-023>025-260200-

NORTHERN UTAH

CITY           SKY/WX    TMP DP  RH WIND       PRES   REMARKS
BRIGHAM CITY   CLOUDY    69  36  29 S5        29.88F
HILL AFB       CLOUDY    70  35  27 S18       29.91F
LOGAN          CLEAR     65  38  36 SE3       29.88F
OGDEN          CLOUDY    71  34  25 S17       29.88F
PROVO AIRPORT  MOCLDY    64  37  36 SW3       29.96F
SALT LAKE CITY CLOUDY    73  33  23 S14G26    29.88F
VERNAL         PTCLDY    56  39  53 NW5       30.05F
WENDOVER       MOCLDY    72  27  18 SW18      29.84S
HEBER CITY     CLOUDY    59  30  33 S6        30.01S
WEST JORDAN    CLEAR     72  43  35 S25G37    29.91F

$$

UTZ012>022-026-027-260200-

SOUTHERN/CENTRAL UTAH

CITY           SKY/WX    TMP DP  RH WIND       PRES   REMARKS
BLANDING       CLEAR     66  32  28 S3        30.24F
BRYCE CANYON   PTCLDY    56  36  47 S12       30.23F
CEDAR CITY     PTCLDY    65  38  36 SW17G29   30.08F
DELTA          MOCLDY    69  38  32 SW20G28   29.98S
HANKSVILLE       N/A     72  32  23 S9        30.04F
MILFORD        PTCLDY    67  39  35 S21       30.02
MOAB/CYNLANDS  CLEAR     73  28  18 S18       30.03S
PRICE          MOCLDY    62  32  32 SE8       30.09F
ST GEORGE      CLOUDY    79  43  27 SW15      29.98S
KANAB            N/A     64  36  34 SW3       30.12F

$$

REGIONAL REPORTS     COLORADO/ARIZONA

CITY           SKY/WX    TMP DP  RH WIND       PRES   REMARKS
CRAIG, CO      MOCLDY    54  30  40 CALM      30.11S
GRAND JUNCTION PTCLDY    63  34  33 NE7       30.07R
RIFLE          PTCLDY    61  35  37 VRB3      30.08F
MONTROSE       PTCLDY    68  31  25 SW3       30.14S
CORTEZ         CLEAR     56  38  50 CALM      30.18F
PAGE, AZ       CLOUDY    72  37  28 E3        30.05F
GRAND CANYON   PTCLDY    62  40  44 SW10      30.24S
KINGMAN        CLEAR     74  43  32 S8        30.06S
FLAGSTAFF      PTCLDY    60  41  49 SW7       30.28S

$$

REGIONAL REPORTS    NEVADA/IDAHO/WYOMING

CITY           SKY/WX    TMP DP  RH WIND       PRES   REMARKS
LAS VEGAS, NV  PTCLDY    82  40  22 SW13      29.90S
ELY            CLEAR     62  30  29 S22G30    30.02F
ELKO           MOCLDY    69  18  14 SW21G30   29.85R
POCATELLO, ID  PTCLDY    66  34  30 S10       29.85F
BURLEY         CLOUDY    63  38  39 SW8       29.79F
EVANSTON, WY   MOCLDY    59  19  21 SW22G28   30.04F
ROCK SPRINGS   MOCLDY    57  30  35 S12       30.04F
KEMMERER       MOCLDY    55  21  26 SW5       30.06S

$$



USA.gov is the U.S. government's official web portal to all federal, state and local government web resources and services.